Location: Newark
(49.3667°N, 21.6167°E)
Time: 20:28:11
(UTC+00:00)

Envisat - Pass Details

Date: 16 December 2019
Orbit: 764 x 766 km, 98.1° (Epoch: 28 January)

Event Time Altitude Azimuth Distance (km) Brightness Sun altitude
Rises 15:34:32 0° 142° (SE) 3,224 6.1 -9.2°
Reaches altitude 10° 15:36:55 10° 135° (SE) 2,302 5.3 -9.5°
Maximum altitude 15:41:39 41° 67° (ENE) 1,109 3.4 -10.2°
Drops below altitude 10° 15:46:24 10° 358° (N) 2,317 5.3 -10.9°
Sets 15:48:49 0° 352° (N) 3,247 6.1 -11.3°
